User: anonymous   Login
Location: Wayah Bald
(35.1806°N, 83.5603°W)
Time: 17:39:15
(UTC-04:00)
Language:

Meteor 1-27 Rocket - Orbit

View from above orbital plane
View from above orbital plane
View from above satellite
View from above satellite

Ground track
Ground track

The orbit data is extracted from the following two-line orbital elements,

1  9904U 77024B   16119.82918210 +.00000101 +00000-0 +52071-4 0  9992
2  9904 081.2629 170.2241 0055370 056.2769 304.3659 14.06825997004313
Epoch (UTC): 28 April 2016 19:54:01
Eccentricity: 0.0055370
inclination: 81.2629°
perigee height: 830 km
apogee height: 910 km
right ascension of ascending node: 170.2241°
argument of perigee: 56.2769°
revolutions per day: 14.06825997
mean anomaly at epoch: 304.3659°
orbit number at epoch: 431

The dashed part of the orbit path shows where the satellite is in the earth's shadow,  

DLR